Location: Sommers-Bausch Observatory
(40.0037°N, 105.2635°W)
Time: 09:10:46
(UTC-06:00)

Amateur Radio Satellites - All Passes

Search period start: 30 September 2016 08:40
Search period end: 01 October 2016 08:40
Location: Sommers-Bausch Observatory, 40.0037°N, 105.2635°W

Satellite Date Start Highest point End Downlink Frequencies (MHz)
Time Altitude Azimuth
CINEMA 3 30 Sep 08:42:59 08:47:12 79° 101° (ESE) 08:51:31 145.822/145.860
PRISM 30 Sep 08:55:07 08:59:14 62° 74° (ENE) 09:03:22 437.425
PHONESAT 2.4 30 Sep 08:55:18 08:56:29 12° 148° (SSE) 08:57:41 2401.200-2431.200
ANTELSAT 30 Sep 09:12:28 09:14:01 12° 63° (ENE) 09:15:35 437.575/2403.000
COMPASS 1 30 Sep 09:12:58 09:17:08 57° 100° (E) 09:21:15 437.405
FUNcube-1 30 Sep 09:24:58 09:28:27 23° 95° (E) 09:31:58 145.935
BEESAT 2 30 Sep 09:29:07 09:32:50 34° 52° (NE) 09:36:31 435.950
TIGRISAT 30 Sep 09:30:46 09:33:37 18° 66° (ENE) 09:36:28 435.000
NOAA 18 30 Sep 09:31:50 09:33:43 12° 303° (WNW) 09:35:35 137.9125
CUBEBUG 2 30 Sep 09:32:21 09:36:40 74° 101° (E) 09:41:07 437.445
HO-68 30 Sep 09:41:54 09:48:54 60° 291° (WNW) 09:55:53 435.675
UWE-3 30 Sep 09:44:43 09:49:03 66° 101° (E) 09:53:30 435.000/436.395/437.385
SEEDS 30 Sep 09:46:51 09:50:49 39° 288° (WNW) 09:54:45 437.485
Cosmos 2499 30 Sep 09:48:36 09:55:28 50° 283° (WNW) 10:02:18 435.465 / 435.565
CUTE 1.7 + AOD 2 30 Sep 09:50:49 09:54:22 25° 291° (WNW) 09:57:54 437.475
CANX-2 30 Sep 09:52:51 09:56:08 21° 292° (WNW) 09:59:23 2200.000
GONETS M04 30 Sep 09:56:33 10:04:54 45° 285° (WNW) 10:13:21
Oscar 11 30 Sep 10:00:49 10:05:09 59° 100° (E) 10:09:26 145.826/435.025
AAUSAT CUBESAT 2 30 Sep 10:01:24 10:05:28 49° 286° (WNW) 10:09:29 437.432
BEESAT 3 30 Sep 10:05:28 10:09:17 44° 243° (WSW) 10:13:03 437.485
HUMSAT D 30 Sep 10:06:13 10:08:10 13° 91° (E) 10:10:07 437.325/437.525
ZACube-1 30 Sep 10:07:54 10:12:16 75° 101° (ESE) 10:16:44 437.345
UNISAT 6 30 Sep 10:10:47 10:14:55 52° 73° (ENE) 10:19:04 437.425
PHONESAT 2.4 30 Sep 10:29:18 10:32:09 51° 162° (SSE) 10:35:00 2401.200-2431.200
PRISM 30 Sep 10:34:29 10:34:54 10° 269° (W) 10:35:21 437.425
JAS-2 30 Sep 10:42:37 10:47:39 23° 58° (ENE) 10:53:03 435.910
ANTELSAT 30 Sep 10:46:00 10:50:12 61° 259° (W) 10:54:26 437.575/2403.000
DUCHIFAT 1 30 Sep 10:47:16 10:49:36 15° 65° (ENE) 10:51:57 145.980
COMPASS 1 30 Sep 10:50:22 10:52:10 13° 296° (WNW) 10:53:58 437.405
QB50P1 30 Sep 10:51:48 10:54:46 19° 67° (ENE) 10:57:45 145.935-145.965
DELFI C3 30 Sep 10:57:45 11:01:46 75° 285° (WNW) 11:05:45 145.870
FUNcube-1 30 Sep 11:00:50 11:04:40 31° 290° (WNW) 11:08:35 145.935
POPSAT HIP 1 30 Sep 11:05:00 11:08:29 26° 69° (ENE) 11:11:58 437.405
TIGRISAT 30 Sep 11:06:03 11:10:01 38° 262° (W) 11:13:59 435.000
BEESAT 2 30 Sep 11:07:27 11:10:25 20° 248° (WSW) 11:13:22 435.950
CUBEBUG 2 30 Sep 11:11:55 11:12:44 10° 297° (WNW) 11:13:33 437.445
NANOSAT C BR1 30 Sep 11:18:56 11:22:45 35° 71° (ENE) 11:26:34 145.865
UWE-3 30 Sep 11:23:25 11:24:59 12° 296° (WNW) 11:26:35 435.000/436.395/437.385
ESTCUBE 1 30 Sep 11:30:18 11:33:20 17° 93° (E) 11:36:20 437.505/2401.250
PCSat 30 Sep 11:31:13 11:32:47 11° 38° (NE) 11:34:21 145.827
HO-68 30 Sep 11:33:18 11:35:09 11° 310° (NW) 11:37:00 435.675
Oscar 11 30 Sep 11:38:46 11:40:45 13° 297° (WNW) 11:42:45 145.826/435.025
HUMSAT D 30 Sep 11:39:55 11:44:04 52° 286° (WNW) 11:48:14 437.325/437.525
QB50P2 30 Sep 11:44:40 11:48:52 82° 75° (ENE) 11:53:06 145.880/145.840
POLYITAN 1 30 Sep 11:46:52 11:51:03 82° 74° (ENE) 11:55:16 437.675
ZACube-1 30 Sep 11:47:08 11:47:57 10° 297° (WNW) 11:48:47 437.345
UNISAT 6 30 Sep 11:50:09 11:51:57 12° 269° (W) 11:53:44 437.425
PHONESAT 2.4 30 Sep 12:05:16 12:08:13 78° 2° (N) 12:11:09 2401.200-2431.200
AISAT 30 Sep 12:10:07 12:13:37 23° 95° (E) 12:17:05 437.250
BUGSAT 1 30 Sep 12:11:26 12:15:25 52° 74° (ENE) 12:19:22 437.445
AIST 2 30 Sep 12:15:18 12:19:29 70° 57° (ENE) 12:23:40 435.215
DUCHIFAT 1 30 Sep 12:20:53 12:24:54 46° 261° (W) 12:28:55 145.980
JAS-2 30 Sep 12:25:17 12:31:48 72° 258° (WSW) 12:39:12 435.910
QB50P1 30 Sep 12:26:28 12:30:18 34° 262° (W) 12:34:09 145.935-145.965
M-CUBED/EXP-1 PRIME 30 Sep 12:34:00 12:35:37 13° 99° (E) 12:37:13 437.505
DX 1 30 Sep 12:35:30 12:39:06 25° 96° (E) 12:42:40 434.975-435.025
POPSAT HIP 1 30 Sep 12:40:44 12:44:12 25° 264° (W) 12:47:40 437.405
CUBEBUG 1 30 Sep 12:49:30 12:53:52 82° 105° (ESE) 12:58:10 437.445
Gurwin Techsat 1B 30 Sep 12:50:28 12:53:30 16° 61° (ENE) 12:56:33 435.225
VELOX 1 30 Sep 12:52:48 12:57:11 66° 101° (ESE) 13:01:32 145.980
NANOSAT C BR1 30 Sep 12:55:41 12:58:34 18° 266° (W) 13:01:28 145.865
ESTCUBE 1 30 Sep 13:06:02 13:10:19 42° 288° (WNW) 13:14:34 437.505/2401.250
Oscar 19 30 Sep 13:06:40 13:11:34 44° 70° (ENE) 13:16:29 437.125/150
50 SAT 30 Sep 13:10:10 13:13:49 69° 284° (WNW) 13:17:26 437.505
PCSat 30 Sep 13:11:58 13:17:21 60° 58° (ENE) 13:22:41 145.827
SPROUT 30 Sep 13:16:38 13:20:53 69° 101° (ESE) 13:25:07 437.525
AUBIESAT-1 30 Sep 13:27:01 13:30:16 56° 106° (ESE) 13:33:35 437.475
UKube-1 30 Sep 13:36:40 13:41:00 85° 288° (WNW) 13:45:18 .
PHONESAT 2.4 30 Sep 13:41:23 13:44:18 63° 194° (SSW) 13:47:13 2401.200-2431.200
Cosmos 2491 30 Sep 13:45:21 13:52:08 26° 81° (E) 13:58:57 435.465 / 435.565
AISAT 30 Sep 13:46:14 13:50:06 30° 290° (WNW) 13:53:55 437.250
YUBILEINY 30 Sep 13:47:50 13:56:17 52° 77° (ENE) 14:04:40 435.215
BUGSAT 1 30 Sep 13:49:38 13:51:04 12° 269° (W) 13:52:30 437.445
AIST 2 30 Sep 13:56:39 13:57:22 10° 253° (WSW) 13:58:06 435.215
M-CUBED/EXP-1 PRIME 30 Sep 14:07:23 14:10:15 28° 293° (WNW) 14:13:07 437.505
ITAMSAT 1 30 Sep 14:07:24 14:11:18 22° 64° (ENE) 14:15:12 435.822/435.867
DX 1 30 Sep 14:11:33 14:15:14 27° 291° (WNW) 14:18:53 434.975-435.025
JAS-2 30 Sep 14:17:03 14:18:15 10° 278° (W) 14:19:29 435.910
TISAT 1 30 Sep 14:26:22 14:30:33 79° 102° (ESE) 14:34:43 437.305
Gurwin Techsat 1B 30 Sep 14:27:33 14:32:50 70° 258° (WSW) 14:38:10 435.225
VELOX 1 30 Sep 14:31:24 14:33:04 12° 298° (WNW) 14:34:45 145.980
SO-50 30 Sep 14:34:03 14:38:43 50° 117° (ESE) 14:43:21 436.795
ITUPSAT 1 30 Sep 14:35:09 14:38:25 18° 93° (E) 14:41:39 437.325
Cosmos 2504 30 Sep 14:44:45 14:51:56 46° 77° (ENE) 14:59:33 435.465 / 435.565
SWISSCUBE 30 Sep 14:45:58 14:50:01 26° 96° (E) 14:54:01 437.505
Oscar 19 30 Sep 14:47:04 14:51:02 22° 266° (W) 14:55:02 437.125/150
AO-7 30 Sep 14:50:41 14:58:24 44° 62° (ENE) 15:06:06 29.400- 29.500
SPROUT 30 Sep 14:55:11 14:56:14 11° 298° (WNW) 14:57:17 437.525
PCSat 30 Sep 14:56:38 15:00:13 18° 255° (WSW) 15:03:49 145.827
BEESAT 30 Sep 14:58:26 15:02:42 31° 97° (E) 15:06:57 436.000
PHONESAT 2.4 30 Sep 15:18:08 15:20:02 16° 210° (SSW) 15:21:55 2401.200-2431.200
AIST 1 30 Sep 15:31:52 15:34:55 19° 73° (ENE) 15:37:57
Cosmos 2491 30 Sep 15:39:29 15:48:11 66° 281° (W) 15:57:01 435.465 / 435.565
YUBILEINY 30 Sep 15:45:14 15:52:39 33° 276° (W) 16:00:05 435.215
ITAMSAT 1 30 Sep 15:45:29 15:50:26 45° 261° (W) 15:55:25 435.822/435.867
MOZHAYETS 4 30 Sep 15:58:29 16:02:13 24° 94° (E) 16:05:56
KKS-1 30 Sep 16:02:52 16:05:23 15° 92° (E) 16:07:54 437.445
BRITE-PL 30 Sep 16:04:45 16:04:52 10° 59° (ENE) 16:04:59 437.365/2234.400
O/OREOS (USA 219) 30 Sep 16:08:41 16:12:35 26° 59° (ENE) 16:16:26 437.305
ITUPSAT 1 30 Sep 16:11:51 16:16:27 47° 289° (WNW) 16:21:03 437.325
SO-50 30 Sep 16:15:38 16:19:27 23° 314° (NW) 16:23:14 436.795
HORYU 2 30 Sep 16:20:11 16:23:13 19° 65° (ENE) 16:26:17 437.375
SWISSCUBE 30 Sep 16:23:32 16:27:47 32° 291° (WNW) 16:32:00 437.505
STARS 30 Sep 16:28:31 16:30:35 13° 92° (E) 16:32:37 437.465
BEESAT 30 Sep 16:36:21 16:40:21 27° 293° (WNW) 16:44:20 436.000
Cosmos 2504 30 Sep 16:38:31 16:45:03 33° 273° (W) 16:51:59 435.465 / 435.565
AO-7 30 Sep 16:43:24 16:51:08 42° 260° (W) 16:58:54 29.400- 29.500
AIST 1 30 Sep 17:08:46 17:12:35 32° 269° (W) 17:16:23
GOMX 1 30 Sep 17:12:41 17:16:18 19° 66° (ENE) 17:19:48 467.674
CUSAT 1 30 Sep 17:24:57 17:26:51 11° 75° (ENE) 17:28:47 437.405
CUBESAT XI-V 30 Sep 17:26:22 17:30:18 26° 95° (E) 17:34:11 437.345
NOAA 18 30 Sep 17:35:13 17:39:26 23° 64° (ENE) 17:43:39 137.9125
MOZHAYETS 4 30 Sep 17:35:14 17:39:24 33° 290° (WNW) 17:43:33
BRITE-PL 30 Sep 17:36:44 17:42:23 70° 75° (ENE) 17:47:54 437.365/2234.400
KKS-1 30 Sep 17:37:56 17:42:12 48° 288° (WNW) 17:46:26 437.445
NOAA 15 30 Sep 17:40:41 17:45:31 37° 68° (ENE) 17:50:22 137.62
Cosmos 2491 30 Sep 17:43:40 17:46:59 12° 303° (WNW) 17:50:19 435.465 / 435.565
O/OREOS (USA 219) 30 Sep 17:47:57 17:51:58 30° 256° (WSW) 17:55:56 437.305
HORYU 2 30 Sep 17:55:20 17:59:28 40° 261° (W) 18:03:38 437.375
STARS 30 Sep 18:02:57 18:07:13 53° 287° (WNW) 18:11:28 437.465
CUTE-I 30 Sep 18:06:52 18:11:59 52° 71° (ENE) 18:17:09 437.470
Cubesat XI-IV 30 Sep 18:07:43 18:12:51 53° 71° (ENE) 18:18:02 437.490
GONETS M04 30 Sep 18:12:07 18:17:45 18° 62° (ENE) 18:23:21
HO-68 30 Sep 18:24:35 18:29:16 19° 56° (NE) 18:33:58 435.675
ISS 30 Sep 18:30:39 18:32:43 16° 131° (SE) 18:34:47 145.825
RS-15 30 Sep 18:32:06 18:41:42 32° 103° (ESE) 18:51:41 29.354- 29.394
LilacSat-2 30 Sep 18:42:46 18:46:28 61° 260° (W) 18:50:12 437.200
GOMX 1 30 Sep 18:48:44 18:53:59 55° 260° (W) 18:59:01 467.674
DOVE 4 30 Sep 18:54:26 18:59:24 78° 77° (ENE) 19:04:06 437.250
CUSAT 1 30 Sep 19:00:42 19:07:05 70° 95° (E) 19:14:49 437.405
CUBESAT XI-V 30 Sep 19:03:33 19:07:38 30° 291° (WNW) 19:11:41 437.345
SEEDS 30 Sep 19:04:47 19:06:13 12° 63° (ENE) 19:07:39 437.485
CUTE 1.7 + AOD 2 30 Sep 19:07:36 19:10:30 18° 66° (ENE) 19:13:24 437.475
CANX-2 30 Sep 19:09:07 19:12:21 22° 68° (ENE) 19:15:37 2200.000
NOAA 18 30 Sep 19:14:31 19:19:45 47° 260° (W) 19:25:01 137.9125
BRITE-PL 30 Sep 19:17:55 19:21:14 16° 270° (W) 19:24:32 437.365/2234.400
NOAA 15 30 Sep 19:20:53 19:25:19 27° 265° (W) 19:29:49 137.62
DANDE 30 Sep 19:20:57 19:25:55 38° 87° (E) 19:32:14 436.750
Cosmos 2499 30 Sep 19:38:31 19:45:59 53° 78° (ENE) 19:54:01 435.465 / 435.565
CINEMA 3 30 Sep 19:43:45 19:48:09 65° 76° (ENE) 19:52:23 145.822/145.860
STRAND 1 30 Sep 19:44:36 19:49:14 33° 97° (E) 19:53:50 437.568
CUTE-I 30 Sep 19:48:39 19:52:19 19° 267° (W) 19:56:01 437.470
Cubesat XI-IV 30 Sep 19:49:34 19:53:13 19° 268° (W) 19:56:54 437.490
COMPASS 1 30 Sep 20:02:55 20:06:42 34° 71° (ENE) 20:10:31 437.405
ISS 30 Sep 20:05:43 20:08:54 52° 326° (NNW) 20:12:06 145.825
GONETS M04 30 Sep 20:07:02 20:15:54 88° 85° (E) 20:24:39
HO-68 30 Sep 20:08:55 20:16:06 85° 254° (WSW) 20:23:19 435.675
AO-85 30 Sep 20:14:42 20:19:44 48° 116° (ESE) 20:24:28 145.980
FUNcube-1 30 Sep 20:20:52 20:23:24 16° 66° (ENE) 20:25:55 145.935
CUBEBUG 2 30 Sep 20:29:51 20:33:55 53° 74° (ENE) 20:37:58 437.445
DOVE 4 30 Sep 20:36:31 20:37:29 11° 270° (W) 20:38:26 437.250
SEEDS 30 Sep 20:37:11 20:41:21 63° 260° (W) 20:45:34 437.485
UWE-3 30 Sep 20:41:10 20:45:08 46° 73° (ENE) 20:49:06 435.000/436.395/437.385
RS-15 30 Sep 20:41:28 20:53:05 73° 305° (NW) 21:05:22 29.354- 29.394
CUTE 1.7 + AOD 2 30 Sep 20:42:06 20:46:02 37° 262° (W) 20:50:02 437.475
CANX-2 30 Sep 20:44:15 20:48:00 31° 264° (W) 20:51:49 2200.000
CUSAT 1 30 Sep 20:44:37 20:49:56 24° 297° (WNW) 20:55:54 437.405
AAUSAT CUBESAT 2 30 Sep 20:50:17 20:54:26 85° 260° (W) 20:58:39 437.432
Oscar 11 30 Sep 20:54:46 20:58:48 40° 72° (ENE) 21:02:51 145.826/435.025
ZACube-1 30 Sep 21:03:03 21:07:03 51° 74° (ENE) 21:11:05 437.345
DANDE 30 Sep 21:03:43 21:08:44 33° 293° (WNW) 21:15:03 436.750
STRAND 1 30 Sep 21:23:53 21:28:17 29° 293° (WNW) 21:32:42 437.568
CINEMA 3 30 Sep 21:25:08 21:25:39 10° 270° (W) 21:26:10 145.822/145.860
Cosmos 2499 30 Sep 21:32:20 21:38:43 30° 274° (W) 21:45:31 435.465 / 435.565
COMPASS 1 30 Sep 21:39:23 21:42:21 19° 267° (W) 21:45:19 437.405
DELFI C3 30 Sep 21:42:26 21:46:20 54° 74° (ENE) 21:50:16 145.870
ISS 30 Sep 21:44:05 21:45:57 14° 345° (NNW) 21:47:51 145.825
FUNcube-1 30 Sep 21:55:25 21:59:18 40° 262° (W) 22:03:13 145.935
AO-85 30 Sep 21:56:09 22:00:22 25° 312° (NW) 22:04:21 145.980
HO-68 30 Sep 22:01:21 22:04:44 14° 271° (W) 22:08:07 435.675
UNISAT 6 30 Sep 22:04:48 22:06:28 12° 91° (E) 22:08:08 437.425
GONETS M04 30 Sep 22:06:11 22:11:25 18° 283° (WNW) 22:16:39
CUBEBUG 2 30 Sep 22:09:28 22:10:52 11° 269° (W) 22:12:16 437.445
PRISM 30 Sep 22:12:22 22:16:29 72° 285° (WNW) 22:20:33 437.425
UWE-3 30 Sep 22:19:51 22:21:51 13° 269° (W) 22:23:51 435.000/436.395/437.385
ESTCUBE 1 30 Sep 22:29:42 22:32:27 16° 64° (ENE) 22:35:11 437.505/2401.250
HUMSAT D 30 Sep 22:30:03 22:34:07 85° 255° (WSW) 22:38:16 437.325/437.525
Oscar 11 30 Sep 22:32:20 22:35:06 17° 268° (W) 22:37:53 145.826/435.025
ANTELSAT 30 Sep 22:38:12 22:42:02 28° 96° (E) 22:45:56 437.575/2403.000
ZACube-1 30 Sep 22:42:04 22:43:40 12° 269° (W) 22:45:16 437.345
TIGRISAT 30 Sep 22:57:28 23:01:42 42° 99° (E) 23:06:00 435.000
RS-15 30 Sep 22:58:26 23:08:14 28° 334° (NNW) 23:18:22 29.354- 29.394
SO-50 30 Sep 23:06:17 23:10:32 36° 51° (NE) 23:14:41 436.795
AISAT 30 Sep 23:07:07 23:10:21 20° 66° (ENE) 23:13:36 437.250
M-CUBED/EXP-1 PRIME 30 Sep 23:19:02 23:22:00 20° 64° (ENE) 23:24:50 437.505
DELFI C3 30 Sep 23:20:27 23:21:28 11° 270° (W) 23:22:30 145.870
ISS 30 Sep 23:22:25 23:23:33 11° 6° (N) 23:24:43 145.825
DX 1 30 Sep 23:30:39 23:33:56 21° 67° (ENE) 23:37:15 434.975-435.025
QB50P2 30 Sep 23:31:45 23:33:56 14° 92° (E) 23:36:05 145.880/145.840
POLYITAN 1 30 Sep 23:33:55 23:36:05 14° 92° (E) 23:38:16 437.675
JAS-2 30 Sep 23:36:47 23:42:29 22° 88° (E) 23:47:55 435.910
UNISAT 6 30 Sep 23:39:08 23:43:31 62° 285° (WNW) 23:48:00 437.425
CUBEBUG 1 30 Sep 23:44:21 23:48:42 61° 74° (ENE) 23:53:04 437.445
50 SAT 30 Sep 23:45:49 23:49:15 41° 73° (ENE) 23:52:43 437.505
VELOX 1 30 Sep 23:49:06 23:53:26 53° 73° (ENE) 23:57:46 145.980
BEESAT 3 30 Sep 23:55:09 23:58:36 32° 115° (ESE) 00:02:08 437.485
Cosmos 2491 30 Sep 23:57:51 00:00:31 11° 56° (NE) 00:03:09 435.465 / 435.565
ESTCUBE 1 01 Oct 00:04:24 00:08:48 51° 260° (W) 00:13:15 437.505/2401.250
DUCHIFAT 1 01 Oct 00:05:42 00:09:17 27° 96° (E) 00:12:52 145.980
SPROUT 01 Oct 00:09:15 00:13:20 46° 73° (ENE) 00:17:25 437.525
QB50P1 01 Oct 00:11:26 00:15:20 36° 98° (E) 00:19:14 145.935-145.965
AUBIESAT-1 01 Oct 00:11:53 00:15:51 69° 71° (ENE) 00:19:33 437.475
ANTELSAT 01 Oct 00:14:56 00:18:39 27° 291° (WNW) 00:22:26 437.575/2403.000
POPSAT HIP 1 01 Oct 00:25:09 00:29:16 52° 100° (E) 00:33:23 437.405
UKube-1 01 Oct 00:30:07 00:34:24 73° 76° (ENE) 00:38:45 .
TIGRISAT 01 Oct 00:35:04 00:38:04 18° 294° (WNW) 00:41:07 435.000
NANOSAT C BR1 01 Oct 00:38:58 00:43:10 73° 101° (ESE) 00:47:22 145.865
AISAT 01 Oct 00:42:26 00:46:34 37° 262° (W) 00:50:42 437.250
SO-50 01 Oct 00:47:10 00:50:47 24° 248° (WSW) 00:54:21 436.795
M-CUBED/EXP-1 PRIME 01 Oct 00:52:48 00:56:23 29° 257° (WSW) 00:59:45 437.505
BEESAT 2 01 Oct 00:57:17 01:01:13 80° 119° (ESE) 01:05:12 435.950
ISS 01 Oct 00:58:08 01:00:56 25° 26° (NNE) 01:03:44 145.825
QB50P2 01 Oct 01:05:54 01:09:58 47° 287° (WNW) 01:14:01 145.880/145.840
DX 1 01 Oct 01:05:56 01:09:54 34° 262° (W) 01:13:54 434.975-435.025
POLYITAN 1 01 Oct 01:08:04 01:12:07 47° 287° (WNW) 01:16:11 437.675
TISAT 1 01 Oct 01:17:02 01:21:06 52° 73° (ENE) 01:25:10 437.305
RS-15 01 Oct 01:17:48 01:26:40 22° 10° (N) 01:35:34 29.354- 29.394
Oscar 19 01 Oct 01:20:09 01:23:12 16° 91° (E) 01:26:13 437.125/150
JAS-2 01 Oct 01:20:19 01:28:11 75° 287° (WNW) 01:35:31 435.910
50 SAT 01 Oct 01:21:45 01:22:57 11° 268° (W) 01:24:10 437.505
CUBEBUG 1 01 Oct 01:23:50 01:25:21 12° 270° (W) 01:26:52 437.445
VELOX 1 01 Oct 01:27:56 01:30:10 14° 268° (W) 01:32:26 145.980
BUGSAT 1 01 Oct 01:28:49 01:32:51 80° 284° (WNW) 01:36:53 437.445
BEESAT 3 01 Oct 01:33:11 01:36:18 22° 312° (NW) 01:39:27 437.485
ITUPSAT 1 01 Oct 01:41:24 01:44:51 20° 65° (ENE) 01:48:19 437.325
DUCHIFAT 1 01 Oct 01:41:29 01:44:51 24° 291° (WNW) 01:48:14 145.980
SPROUT 01 Oct 01:47:12 01:49:29 14° 268° (W) 01:51:47 437.525
QB50P1 01 Oct 01:47:55 01:50:50 18° 293° (WNW) 01:53:46 145.935-145.965
Cosmos 2491 01 Oct 01:50:38 01:59:26 62° 79° (E) 02:08:06 435.465 / 435.565
SWISSCUBE 01 Oct 01:51:49 01:55:52 29° 68° (ENE) 01:59:57 437.505
POPSAT HIP 1 01 Oct 02:02:30 02:04:36 14° 296° (WNW) 02:06:42 437.405
BEESAT 01 Oct 02:04:08 02:08:24 34° 69° (ENE) 02:12:41 436.000
AIST 2 01 Oct 02:13:31 02:16:06 16° 110° (ESE) 02:18:44 435.215
ISS 01 Oct 02:34:23 02:37:32 43° 222° (SW) 02:40:39 145.825
BEESAT 2 01 Oct 02:38:00 02:39:34 12° 319° (NW) 02:41:09 435.950
Gurwin Techsat 1B 01 Oct 02:44:27 02:49:37 49° 100° (E) 02:54:45 435.225
YUBILEINY 01 Oct 02:47:26 02:56:01 61° 91° (E) 03:04:35 435.215
TISAT 1 01 Oct 02:55:19 02:57:02 12° 269° (W) 02:58:45 437.305
AO-7 01 Oct 02:56:25 02:59:00 12° 88° (E) 03:01:34 29.400- 29.500
Oscar 19 01 Oct 02:57:50 03:02:54 59° 287° (WNW) 03:07:55 437.125/150
MOZHAYETS 4 01 Oct 03:00:01 03:03:28 21° 66° (ENE) 03:06:55
KKS-1 01 Oct 03:00:56 03:03:12 14° 63° (ENE) 03:05:28 437.445
JAS-2 01 Oct 03:07:25 03:11:48 16° 306° (NW) 03:16:06 435.910
ITUPSAT 1 01 Oct 03:17:51 03:22:22 43° 261° (W) 03:26:55 437.325
Cosmos 2504 01 Oct 03:23:18 03:29:52 37° 88° (E) 03:36:17 435.465 / 435.565
STARS 01 Oct 03:25:27 03:27:03 12° 62° (ENE) 03:28:39 437.465
SWISSCUBE 01 Oct 03:29:27 03:33:34 29° 264° (W) 03:37:43 437.505
RS-15 01 Oct 03:32:02 03:43:45 44° 42° (NE) 03:55:12 29.354- 29.394
BEESAT 01 Oct 03:42:23 03:46:13 24° 265° (W) 03:50:05 436.000
Cosmos 2491 01 Oct 03:48:32 03:55:33 28° 278° (W) 04:02:33 435.465 / 435.565
AIST 2 01 Oct 03:50:18 03:54:13 43° 307° (NW) 03:58:11 435.215
PCSat 01 Oct 03:52:41 03:58:00 63° 115° (ESE) 04:03:23 145.827
ITAMSAT 1 01 Oct 03:58:35 04:03:48 67° 102° (ESE) 04:09:00 435.822/435.867
AIST 1 01 Oct 04:02:15 04:03:49 12° 84° (E) 04:05:21
Gurwin Techsat 1B 01 Oct 04:25:15 04:29:11 21° 296° (WNW) 04:33:07 435.225
CUBESAT XI-V 01 Oct 04:29:04 04:32:51 25° 68° (ENE) 04:36:40 437.345
KKS-1 01 Oct 04:34:54 04:39:16 57° 259° (W) 04:43:40 437.445
MOZHAYETS 4 01 Oct 04:36:09 04:40:21 37° 262° (W) 04:44:38
AO-7 01 Oct 04:44:47 04:53:06 71° 105° (ESE) 05:01:22 29.400- 29.500
YUBILEINY 01 Oct 04:46:01 04:53:20 29° 291° (WNW) 05:00:40 435.215
AO-85 01 Oct 04:47:42 04:51:21 29° 49° (NE) 04:54:48 145.980
STARS 01 Oct 04:58:29 05:02:50 67° 258° (WSW) 05:07:12 437.465
Cosmos 2504 01 Oct 05:16:28 05:23:08 37° 286° (WNW) 05:29:43 435.465 / 435.565
AIST 1 01 Oct 05:36:33 05:40:51 55° 280° (W) 05:45:09
CUSAT 1 01 Oct 05:36:46 05:44:04 50° 74° (ENE) 05:49:59 437.405
PCSat 01 Oct 05:37:49 05:41:51 21° 313° (NW) 05:45:55 145.827
ITAMSAT 1 01 Oct 05:39:36 05:42:42 16° 299° (WNW) 05:45:47 435.822/435.867
BRITE-PL 01 Oct 05:44:00 05:47:28 21° 92° (E) 05:50:45 437.365/2234.400
RS-15 01 Oct 05:44:46 05:56:54 64° 247° (WSW) 06:08:41 29.354- 29.394
HORYU 2 01 Oct 05:46:34 05:50:44 38° 99° (E) 05:54:53 437.375
NOAA 15 01 Oct 05:57:55 06:00:38 14° 91° (E) 06:03:19 137.62
DANDE 01 Oct 05:59:23 06:07:05 38° 70° (ENE) 06:14:05 436.750
CUBESAT XI-V 01 Oct 06:05:50 06:10:04 33° 264° (W) 06:14:20 437.345
LilacSat-2 01 Oct 06:17:51 06:20:02 15° 92° (E) 06:22:13 437.200
O/OREOS (USA 219) 01 Oct 06:20:08 06:24:12 32° 104° (ESE) 06:28:17 437.305
CUTE-I 01 Oct 06:25:11 06:29:17 22° 94° (E) 06:33:22 437.470
Cubesat XI-IV 01 Oct 06:26:14 06:30:21 22° 94° (E) 06:34:27 437.490
AO-85 01 Oct 06:28:21 06:31:36 23° 248° (WSW) 06:34:44 145.980
AO-7 01 Oct 06:38:35 06:45:10 27° 304° (NW) 06:51:44 29.400- 29.500
GOMX 1 01 Oct 06:51:48 06:55:56 43° 98° (E) 06:59:54 467.674
DOVE 4 01 Oct 06:55:03 06:57:58 18° 93° (E) 07:00:53 437.250
STRAND 1 01 Oct 06:59:44 07:04:32 44° 70° (ENE) 07:09:23 437.568
GONETS M04 01 Oct 07:13:39 07:19:39 21° 79° (E) 07:25:37
CUSAT 1 01 Oct 07:19:31 07:25:31 28° 276° (W) 07:30:37 437.405
BRITE-PL 01 Oct 07:21:52 07:26:06 34° 291° (WNW) 07:30:02 437.365/2234.400
HORYU 2 01 Oct 07:23:46 07:27:01 20° 294° (WNW) 07:30:15 437.375
NOAA 15 01 Oct 07:35:37 07:40:53 69° 287° (WNW) 07:46:07 137.62
NOAA 18 01 Oct 07:36:49 07:42:19 77° 104° (ESE) 07:47:48 137.9125
HO-68 01 Oct 07:38:56 07:43:40 19° 91° (E) 07:48:23 435.675
CINEMA 3 01 Oct 07:40:00 07:42:27 15° 93° (E) 07:44:55 145.822/145.860
DANDE 01 Oct 07:42:06 07:50:02 48° 270° (W) 07:57:06 436.750
LilacSat-2 01 Oct 07:50:54 07:54:28 36° 287° (WNW) 07:58:01 437.200
O/OREOS (USA 219) 01 Oct 07:59:53 08:03:37 24° 301° (WNW) 08:07:24 437.305
RS-15 01 Oct 08:02:27 08:06:43 12° 267° (W) 08:10:57 29.354- 29.394
CUTE-I 01 Oct 08:04:25 08:09:31 46° 289° (WNW) 08:14:36 437.470
Cubesat XI-IV 01 Oct 08:05:30 08:10:36 45° 290° (WNW) 08:15:41 437.490
BEESAT 3 01 Oct 08:13:01 08:15:50 18° 46° (NE) 08:18:39 437.485
Cosmos 2499 01 Oct 08:15:22 08:21:54 41° 89° (E) 08:28:23 435.465 / 435.565
SEEDS 01 Oct 08:22:15 08:25:35 22° 94° (E) 08:28:55 437.485
CUBEBUG 2 01 Oct 08:22:48 08:24:30 12° 91° (E) 08:26:12 437.445
CUTE 1.7 + AOD 2 01 Oct 08:27:23 08:31:23 36° 97° (E) 08:35:20 437.475
CANX-2 01 Oct 08:29:19 08:33:27 45° 98° (E) 08:37:35 2200.000
GOMX 1 01 Oct 08:31:07 08:33:37 15° 296° (WNW) 08:36:04 467.674
DOVE 4 01 Oct 08:32:04 08:35:47 32° 289° (WNW) 08:39:29 437.250
UWE-3 01 Oct 08:34:23 08:34:30 10° 90° (E) 08:34:37 435.000/436.395/437.385
AAUSAT CUBESAT 2 01 Oct 08:34:23 08:36:56 16° 92° (E) 08:39:28 437.432
